[[{"header":{"parameterUnit":"m.s-1","parameterCategory":1,"la1":30.2992,"la2":30.254,"lo1":-89.0895,"lo2":-89.0443,"dy":0.0025,"dx":0.0025,"nx":19,"ny":19,"refTime":"2026-03-28T09:00:00:Z","depth":0,"parameterNumber":2,"parameterNumberName":"U-component_of_WINDS"},"data":[0,0,0,-2.8034,-2.8037,-2.8152,-2.8153,-2.8307,-2.8309,0,0,0,0,0,0,0,0,0,0,0,-2.8005,-2.8006,-2.8034,-2.8037,-2.8152,-2.8153,-2.8307,-2.8309,0,0,0,0,0,0,0,0,0,0,0,-2.8004,-2.8006,-2.8007,-2.8037,-2.8152,-2.8153,-2.8307,-2.8217,0,0,0,0,0,0,0,0,0,0,-2.8104,-2.8082,-2.8006,-2.8007,-2.8038,-2.8152,-2.8153,-2.8213,-2.8223,-2.8258,0,-2.8292,0,-2.8303,-2.832,-2.832,0,0,0,-2.8033,-2.8074,-2.81,-2.8008,-2.8039,-2.8152,-2.8099,-2.8218,-2.8229,-2.8272,-2.8294,-2.83,-2.8306,-2.8321,-2.8322,-2.8542,-2.8543,0,0,-2.8027,-2.8028,-2.8092,-2.8108,-2.8091,-2.8095,-2.8103,-2.8225,-2.8249,-2.8295,-2.8303,-2.8308,-2.8322,-2.8323,-2.8541,-2.8543,0,0,0,-2.8011,-2.8024,-2.8047,-2.8102,-2.8122,-2.8099,-2.8107,-2.8244,-2.8251,-2.8305,-2.831,-2.8323,-2.8325,-2.854,-2.8542,-2.8604,0,0,0,-2.8007,-2.8015,-2.8045,-2.8047,-2.812,-2.8185,-2.8124,-2.8243,-2.8257,-2.8309,-2.8323,-2.8326,-2.8538,-2.8541,-2.8599,-2.8633,0,0,0,-2.7996,-2.8014,-2.8032,-2.8047,-2.8097,-2.8182,-2.8197,-2.8246,-2.826,-2.832,-2.8327,-2.8538,-2.854,-2.8595,-2.8626,-2.8692,0,0,0,-2.7984,-2.8086,-2.8033,-2.8148,-2.8096,-2.822,-2.8196,-2.8288,-2.8348,-2.8324,-2.8539,-2.8541,-2.8594,-2.8622,-2.8687,-2.8748,-2.8773,0,0,-2.8113,-2.8101,-2.8169,-2.8125,-2.8259,-2.8202,-2.8345,-2.8398,-2.8401,-2.8495,-2.85,-2.8601,-2.8626,-2.8691,-2.8912,-2.8932,0,0,0,-2.8211,-2.8259,-2.8294,-2.8351,-2.8393,-2.8432,-2.8462,-2.8481,-2.8561,-2.845,-2.8642,-2.8657,-2.8695,-2.8723,-2.874,-2.8773,-2.8555,-2.8554,-2.8554,-2.8397,-2.8396,-2.8507,-2.8521,-2.8576,-2.8605,-2.865,-2.868,-2.8664,-2.8709,-2.8737,-2.8871,-2.8905,-2.8918,-2.8951,-2.8768,-2.8768,-2.8769,-2.8769,-2.8586,-2.8655,-2.863,-2.8729,-2.8727,-2.881,-2.8842,-2.8827,-2.8904,-2.885,-2.8884,-2.8825,-2.894,-2.8969,-2.8773,-2.8773,-2.8772,-2.8772,-2.8771,-2.8708,-2.8741,-2.8763,-2.8844,-2.8906,-2.8915,-2.899,-2.8986,-2.8982,-2.9015,-2.9044,-2.9043,-2.9042,-2.9029,-2.903,-2.903,-2.903,-2.9031,-2.9031,-2.8827,-2.8849,-2.8913,-2.8966,-2.9001,-2.9047,-2.9077,-2.9112,-2.9148,-2.9139,-2.9139,-2.9118,-2.8951,-2.8909,-2.9038,-2.9037,-2.9036,-2.9035,-2.9035,-2.902,-2.8976,-2.9075,-2.911,-2.9171,-2.9233,-2.9226,-2.9296,-2.9324,-2.9361,-2.9332,-2.9209,-2.9197,-2.9183,-2.9148,-2.9332,-2.9332,-2.9332,-2.9332,-2.9124,-2.9117,-2.9216,-2.9273,-2.9328,-2.9332,-2.9443,-2.9466,-2.9484,-2.9501,-2.9473,-2.9427,-2.9413,-2.9409,-2.939,-2.9358,-2.9591,-2.9591,-2.9591,-2.9243,-2.9241,-2.9337,-2.9353,-2.94,-2.9441,-2.9545,-2.961,-2.9621,-2.9601,-2.9514,-2.9503,-2.9428,-2.9403,-2.9383,-2.9354,-2.9295,0,0]},{"header":{"parameterUnit":"m.s-1","parameterCategory":1,"la1":30.2992,"la2":30.254,"lo1":-89.0895,"lo2":-89.0443,"dy":0.0025,"dx":0.0025,"nx":19,"ny":19,"refTime":"2026-03-28T09:00:00:Z","depth":0,"parameterNumber":3,"parameterNumberName":"V-component_of_WINDS"},"data":[0,0,0,-4.9758,-4.9759,-4.9818,-4.9818,-4.9903,-4.9903,0,0,0,0,0,0,0,0,0,0,0,-4.9748,-4.9749,-4.9758,-4.9759,-4.9818,-4.9818,-4.9902,-4.9903,0,0,0,0,0,0,0,0,0,0,0,-4.9747,-4.9748,-4.975,-4.976,-4.9818,-4.9818,-4.9902,-4.9854,0,0,0,0,0,0,0,0,0,0,-4.9795,-4.9794,-4.9748,-4.975,-4.976,-4.9818,-4.9818,-4.9852,-4.9857,-4.988,0,-4.9905,0,-4.9906,-4.991,-4.991,0,0,0,-4.9753,-4.9789,-4.9799,-4.975,-4.9761,-4.9818,-4.979,-4.9855,-4.9861,-4.9888,-4.9906,-4.9909,-4.9907,-4.991,-4.9911,-5.0071,-5.0072,0,0,-4.975,-4.9762,-4.9794,-4.9803,-4.9797,-4.9788,-4.9792,-4.9858,-4.9878,-4.9906,-4.9911,-4.9909,-4.9911,-4.9912,-5.007,-5.0071,0,0,0,-4.9745,-4.976,-4.9767,-4.98,-4.981,-4.979,-4.9794,-4.9875,-4.9877,-4.9912,-4.991,-4.9912,-4.9913,-5.0069,-5.007,-5.0133,0,0,0,-4.9742,-4.9757,-4.9766,-4.9774,-4.9809,-4.9844,-4.981,-4.9872,-4.9879,-4.9909,-4.9912,-4.9914,-5.0067,-5.0069,-5.0129,-5.016,0,0,0,-4.9741,-4.9757,-4.9768,-4.9775,-4.9801,-4.9843,-4.9848,-4.9873,-4.9878,-4.991,-4.9914,-5.0067,-5.0069,-5.0125,-5.0154,-5.0205,0,0,0,-4.9743,-4.9823,-4.9769,-4.9857,-4.9801,-4.9882,-4.9847,-4.9907,-4.9942,-4.9912,-5.0068,-5.007,-5.0124,-5.015,-5.0201,-5.0249,-5.0271,0,0,-4.985,-4.9836,-4.9887,-4.9841,-4.9935,-4.9872,-4.9975,-4.9995,-4.9986,-5.0042,-5.0046,-5.013,-5.0153,-5.0204,-5.0391,-5.0408,0,0,0,-4.9925,-4.9961,-4.9984,-5.0019,-5.0037,-5.0054,-5.0057,-5.0065,-5.0112,-5.0018,-5.0163,-5.0176,-5.0205,-5.0227,-5.0242,-5.0266,-5.0081,-5.0081,-5.0081,-5.0093,-5.0079,-5.0161,-5.0154,-5.0188,-5.0191,-5.0216,-5.0226,-5.0201,-5.0235,-5.0251,-5.0367,-5.0393,-5.0404,-5.0429,-5.0277,-5.0277,-5.0277,-5.0278,-5.0247,-5.0296,-5.0262,-5.033,-5.0313,-5.0369,-5.0375,-5.0355,-5.0403,-5.0353,-5.0378,-5.0323,-5.0424,-5.0444,-5.0282,-5.0281,-5.0281,-5.028,-5.028,-5.0354,-5.0375,-5.0384,-5.0432,-5.0471,-5.046,-5.0509,-5.0492,-5.0477,-5.0501,-5.0516,-5.0515,-5.051,-5.051,-5.051,-5.0511,-5.0511,-5.0511,-5.0512,-5.0461,-5.0469,-5.0512,-5.0539,-5.0559,-5.0583,-5.0586,-5.0605,-5.062,-5.0604,-5.0604,-5.0575,-5.0437,-5.0402,-5.0518,-5.0517,-5.0516,-5.0515,-5.0515,-5.0619,-5.0581,-5.0649,-5.0669,-5.0698,-5.0737,-5.0716,-5.0755,-5.0768,-5.0792,-5.0757,-5.0659,-5.0642,-5.0631,-5.0601,-5.0761,-5.0761,-5.0761,-5.0761,-5.0708,-5.0699,-5.0764,-5.0798,-5.0828,-5.0816,-5.0891,-5.0894,-5.0891,-5.0898,-5.0872,-5.0833,-5.0821,-5.0811,-5.0796,-5.0768,-5.0967,-5.0967,-5.0967,-5.0804,-5.0798,-5.0865,-5.0864,-5.0885,-5.0903,-5.0973,-5.101,-5.0999,-5.0975,-5.0902,-5.0893,-5.0829,-5.0809,-5.0782,-5.0758,-5.0706,0,0]}]]